Location: Ariel
(45.9570°N, 122.5700°W)
Time: 14:52:24
(UTC-07:00)

Vanguard 3 - Pass Details

Date: 02 September 2019
Orbit: 508 x 3262 km, 33.3° (Epoch: 23 October)

Event Time Altitude Azimuth Distance (km) Brightness Sun altitude
Rises 15:01:20 0° 238° (WSW) 6,947 12.6 44.9°
Reaches altitude 10° 15:06:48 10° 233° (SW) 5,640 12.5 44.3°
Maximum altitude 15:20:48 39° 173° (S) 2,776 10.8 42.6°
Drops below altitude 10° 15:29:30 10° 108° (ESE) 3,535 10.3 41.5°
Sets 15:32:05 0° 100° (E) 4,199 10.5 41.1°
